Location: Grambois
(43.7619°N, 5.5873°E)
Time: 06:54:14
(UTC+00:00)

Timation 1 Rocket - Pass Details

Date: 07 June 2020
Orbit: 900 x 907 km, 70.0° (Epoch: 05 July)

Event Time Altitude Azimuth Distance (km) Brightness Sun altitude
Rises 01:04:44 0° 331° (NNW) 3,532 8.0 -20.4°
Reaches altitude 10° 01:07:15 10° 329° (NNW) 2,587 7.2 -20.3°
Maximum altitude 01:13:11 71° 248° (WSW) 954 4.3 -19.9°
Enters shadow 01:16:19 29° 171° (S) 1,583 5.2 -19.6°
